This is the latest recevied weather packets stored in our database for station/object JE0GNV-13. If no packets are shown the sender has not sent any weather packets the latest 10 day(s).
| Time | Temp. | Humidity | Pressure | Rain* | Wind** | Luminosity | Snow |
|---|---|---|---|---|---|---|---|
| 1777700401 | 22.22° C | 26% | 1006.7 hPa | 0 mm | - | - | - |
| 1777699801 | 22.22° C | 27% | 1006.5 hPa | 0 mm | - | - | - |
| 1777699200 | 22.78° C | 27% | 1006.3 hPa | 0 mm | - | - | - |
| 1777698600 | 22.78° C | 30% | 1006.2 hPa | 0 mm | - | - | - |
| 1777698001 | 22.78° C | 34% | 1006.2 hPa | 0 mm | - | - | - |
| 1777697401 | 22.22° C | 31% | 1006.1 hPa | 0 mm | - | - | - |
| 1777696801 | 22.22° C | 32% | 1006.1 hPa | 0 mm | - | - | - |
| 1777696201 | 22.22° C | 37% | 1006.1 hPa | 0 mm | - | - | - |
| 1777695601 | 21.67° C | 34% | 1005.9 hPa | 0 mm | - | - | - |
| 1777695001 | 21.67° C | 38% | 1005.8 hPa | 0 mm | - | - | - |
| 1777694401 | 21.11° C | 40% | 1005.8 hPa | 0 mm | - | - | - |
| 1777693801 | 21.11° C | 40% | 1005.8 hPa | 0 mm | - | - | - |
| 1777693201 | 21.11° C | 42% | 1005.8 hPa | 0 mm | - | - | - |
| 1777692601 | 20.56° C | 41% | 1005.7 hPa | 0 mm | - | - | - |
| 1777692000 | 20.56° C | 40% | 1005.9 hPa | 0 mm | - | - | - |
| 1777691400 | 20.56° C | 44% | 1005.9 hPa | 0 mm | - | - | - |
| 1777690801 | 20° C | 46% | 1006 hPa | 0 mm | - | - | - |
| 1777690202 | 20° C | 48% | 1005.9 hPa | 0 mm | - | - | - |
| 1777689601 | 19.44° C | 49% | 1005.9 hPa | 0 mm | - | - | - |
| 1777689001 | 19.44° C | 53% | 1005.9 hPa | 0 mm | - | - | - |
| 1777688402 | 18.33° C | 49% | 1006 hPa | 0 mm | - | - | - |
| 1777687801 | 18.33° C | 51% | 1006 hPa | 0 mm | - | - | - |
| 1777687200 | 18.89° C | 50% | 1005.9 hPa | 0 mm | - | - | - |
| 1777686601 | 18.33° C | 54% | 1005.8 hPa | 0 mm | - | - | - |
| 1777686000 | 17.22° C | 57% | 1005.8 hPa | 0 mm | - | - | - |
* Rain latest hour (hover to see other rain measurements)
** Current wind speed in m/s (hover to see current wind gust speed)